Location: Gaast
(52.9002°N, 5.8891°E)
Time: 07:16:11
(UTC+00:00)

ATLAS CENTAUR R/B - Pass Details

Date: 18 November 2025
Orbit: 342 x 420 km, 64.6° (Epoch: 11 December)

Event Time Altitude Azimuth Distance (km) Brightness Sun altitude
Rises 17:23:53 0° 273° (W) 2,440 6.2 -15.7°
Reaches altitude 10° 17:26:29 10° 293° (WNW) 1,572 4.5 -16.1°
Maximum altitude 17:28:59 18° 338° (NNW) 1,165 3.1 -16.4°
Enters shadow 17:30:38 14° 12° (NNE) 1,355 3.1 -16.7°
